Location: Gudip?du
(17.0263°N, 80.8301°E)
Time: 16:23:30
(UTC+00:00)

Atlas Centaur 2 - Pass Details

Date: 03 August 2024
Orbit: 457 x 1271 km, 30.4° (Epoch: 12 September)

Event Time Altitude Azimuth Distance (km) Brightness Sun altitude
Exits shadow 22:05:17 57° 187° (S) 1,439 3.0 -29.6°
Drops below altitude 10° 22:12:40 10° 133° (SE) 3,254 5.4 -28.0°
Sets 22:15:39 0° 130° (SE) 4,204 6.1 -27.4°
